Location: Rehoboth Beach
(38.7438°N, 75.1341°W)
Time: 22:28:18

Hubble Space Telescope - Visible Passes

Search period start: 27 October 2016 00:00
Search period end: 06 November 2016 00:00
Orbit: 539 x 542 km, 28.5° (Epoch: 27 October)

Date Brightness Start Highest point End Pass type
(mag) Time Alt. Az. Time Alt. Az. Time Alt. Az.
01 Nov 3.5 06:47:01 10° S 06:48:29 12° SSE 06:49:57 10° SE visible
02 Nov 3.4 06:36:26 10° SSW 06:38:30 13° SSE 06:40:34 10° SE visible
03 Nov 3.3 06:26:04 10° SSW 06:28:30 15° SSE 06:30:57 10° SE visible
04 Nov 3.1 06:15:50 10° SSW 06:18:32 17° S 06:21:13 10° SE visible
05 Nov 3.0 06:06:04 11° SSW 06:08:33 18° S 06:11:25 10° SE visible
